Hollywood, FL

3:04 PM EDT on March 24, 2017 (GMT -0400)
North Perry

Weather History for KHWO - August, 2014

Change the Weather History Date:

Saturday, August 30, 2014

  Actual Average (KFLL) Record (KFLL)
Temperature  
Mean Temperature 85 °F -  
Max Temperature 93 °F 89 °F 98 °F (1964)
Min Temperature 79 °F 75 °F 68 °F (1969)
Cooling Degree Days 20    
Growing Degree Days 35 (Base 50)    
Moisture  
Dew Point 75 °F    
Average Humidity 71    
Maximum Humidity 88    
Minimum Humidity 55    
Precipitation  
Precipitation 0.00 in - - ()
Sea Level Pressure  
Sea Level Pressure 30.09 in    
Wind  
Wind Speed 9 mph (ESE)    
Max Wind Speed 17 mph    
Max Gust Speed 26 mph    
Visibility 10 miles    
Events Rain , Thunderstorm    
Averages and records for this station are not official NWS values.
T = Trace of Precipitation, MM = Missing Value Source: NWS Daily Summary

Daily Weather History Graph

Daily Weather History Graph

Search for Another Location

Airport or City:

Trip Planner

Search our weather history database for the weather conditions in past years. The results will help you decide how hot, cold, wet, or windy it might be!

Date:

Astronomy

Aug. 30, 2014 Rise Set
Actual Time 7:00 AM EDT 7:42 PM EDT
Civil Twilight 6:36 AM EDT 8:05 PM EDT
Nautical Twilight 6:09 AM EDT 8:33 PM EDT
Astronomical Twilight 5:41 AM EDT 9:01 PM EDT
Moon 11:15 AM EDT (8/30) 10:48 PM EDT (8/30)
Length of Visible Light 13h 29m
Length of Day
12h 42m
Waxing Crescent, 23% of the Moon is Illuminated
Aug 30
Waxing Crescent
Sep 2
First Quarter
Sep 8
Full
Sep 15
Last Quarter
Sep 24
New

Hourly Weather History & Observations

Time (EDT) Temp. Heat Index Dew Point Humidity Pressure Visibility Wind Dir Wind Speed Gust Speed Precip Events Conditions
12:53 AM 84.9 °F 95.3 °F 77.0 °F 77% 30.12 in 10.0 mi East 6.9 mph - N/A   Overcast
1:53 AM 82.9 °F 90.2 °F 75.0 °F 77% 30.11 in 10.0 mi ESE 6.9 mph - 0.00 in Rain , Thunderstorm Light Rain
2:02 AM 82.0 °F 88.6 °F 75.0 °F 79% 30.10 in 10.0 mi East 5.8 mph - 0.00 in Thunderstorm Thunderstorm
2:17 AM 82.0 °F 88.6 °F 75.0 °F 79% 30.10 in 10.0 mi ESE 9.2 mph - 0.00 in Rain Light Rain
2:39 AM 80.1 °F 83.6 °F 71.1 °F 74% 30.09 in 10.0 mi East 9.2 mph - 0.00 in   Overcast
2:51 AM 80.6 °F 85.4 °F 73.4 °F 79% 30.09 in 10.0 mi SE 8.1 mph - 0.00 in Rain Light Rain
2:53 AM 81.0 °F 86.2 °F 73.9 °F 79% 30.09 in 10.0 mi SE 8.1 mph - 0.00 in Rain Light Rain
2:55 AM 81.0 °F 86.7 °F 75.0 °F 82% 30.09 in 10.0 mi SE 6.9 mph - 0.00 in Thunderstorm Mostly Cloudy
3:23 AM 79.0 °F - 75.0 °F 88% 30.08 in 10.0 mi East 3.5 mph - 0.00 in   Scattered Clouds
3:53 AM 80.1 °F 84.5 °F 73.9 °F 81% 30.07 in 10.0 mi ESE 4.6 mph - 0.00 in   Clear
4:53 AM 80.1 °F 85.1 °F 75.0 °F 85% 30.07 in 10.0 mi Calm Calm - N/A   Clear
5:53 AM 82.0 °F 89.4 °F 75.9 °F 82% 30.09 in 10.0 mi SE 5.8 mph - N/A   Clear
6:53 AM 82.0 °F 89.4 °F 75.9 °F 82% 30.10 in 10.0 mi East 3.5 mph - N/A   Clear
7:53 AM 82.9 °F 91.8 °F 77.0 °F 82% 30.12 in 10.0 mi East 6.9 mph - N/A   Partly Cloudy
8:53 AM 86.0 °F 96.0 °F 75.9 °F 72% 30.11 in 10.0 mi ESE 12.7 mph - N/A   Clear
9:53 AM 89.1 °F 101.4 °F 77.0 °F 67% 30.12 in 10.0 mi East 10.4 mph 18.4 mph N/A   Scattered Clouds
10:53 AM 90.0 °F 100.2 °F 75.0 °F 61% 30.12 in 10.0 mi SE 13.8 mph - N/A   Clear
11:53 AM 91.0 °F 101.6 °F 75.0 °F 59% 30.12 in 10.0 mi ESE 11.5 mph - N/A   Mostly Cloudy
12:53 PM 91.9 °F 101.3 °F 73.9 °F 55% 30.12 in 10.0 mi East 13.8 mph 26.5 mph N/A   Partly Cloudy
1:53 PM 91.0 °F 100.4 °F 73.9 °F 57% 30.10 in 10.0 mi ESE 16.1 mph 21.9 mph N/A   Scattered Clouds
2:53 PM 91.9 °F 101.3 °F 73.9 °F 55% 30.09 in 10.0 mi East 17.3 mph 21.9 mph N/A   Partly Cloudy
3:53 PM 91.9 °F 103.2 °F 75.0 °F 58% 30.07 in 10.0 mi East 15.0 mph 21.9 mph N/A   Partly Cloudy
4:53 PM 88.0 °F 100.2 °F 77.0 °F 70% 30.06 in 10.0 mi ESE 12.7 mph - 0.00 in Rain Light Rain
5:53 PM 89.1 °F 99.1 °F 75.0 °F 63% 30.05 in 10.0 mi East 15.0 mph - 0.00 in   Clear
6:53 PM 87.1 °F 94.5 °F 73.0 °F 63% 30.06 in 10.0 mi East 15.0 mph - N/A   Clear
7:53 PM 86.0 °F 93.8 °F 73.9 °F 67% 30.08 in 10.0 mi East 12.7 mph - N/A   Clear
8:53 PM 86.0 °F 96.0 °F 75.9 °F 72% 30.09 in 10.0 mi East 13.8 mph - N/A   Scattered Clouds
9:05 PM 84.9 °F 90.1 °F 71.1 °F 63% 30.09 in 10.0 mi SE 8.1 mph - N/A   Mostly Cloudy
9:18 PM 84.9 °F 90.7 °F 72.0 °F 65% 30.09 in 10.0 mi East 5.8 mph - N/A   Mostly Cloudy
9:53 PM 86.0 °F 93.8 °F 73.9 °F 67% 30.10 in 10.0 mi ESE 10.4 mph - N/A   Clear
11:53 PM 84.9 °F 93.3 °F 75.0 °F 72% 30.11 in 10.0 mi ESE 9.2 mph - N/A   Clear